timestamp,wind_dir_avg,wind_spd_avg,wind_spd_max_dir,wind_spd_gust,battery_voltage,lat,long
2023-11-26 00:04:01+00:00,313.0,5.36,315.0,6.23,12.41,47.59359,-54.27349
2023-11-26 00:14:01+00:00,312.0,5.44,311.0,6.44,12.33,47.59359,-54.27349
2023-11-26 00:24:01+00:00,311.0,5.69,308.0,6.36,12.33,47.59359,-54.27349
2023-11-26 00:34:01+00:00,307.0,6.1,314.0,7.13,12.33,47.59359,-54.27349
2023-11-26 00:44:01+00:00,313.0,6.16,315.0,6.89,12.33,47.59359,-54.27349
2023-11-26 00:54:01+00:00,309.0,5.64,304.0,7.56,12.33,47.59359,-54.27349
2023-11-26 01:04:01+00:00,306.0,5.71,310.0,6.39,12.33,47.59359,-54.27349
2023-11-26 01:14:00+00:00,304.0,5.75,310.0,6.62,12.33,47.59359,-54.27349
2023-11-26 01:24:00+00:00,298.0,5.49,294.0,6.39,12.33,47.59359,-54.27349
2023-11-26 01:34:00+00:00,298.0,5.65,304.0,6.22,12.33,47.59359,-54.27349
2023-11-26 01:44:00+00:00,294.0,6.03,299.0,6.71,12.33,47.59359,-54.27349
2023-11-26 01:54:00+00:00,308.0,6.44,310.0,7.22,12.33,47.59359,-54.27349
2023-11-26 02:04:00+00:00,314.0,6.0,310.0,6.66,12.33,47.59359,-54.27349
2023-11-26 02:14:01+00:00,306.0,5.53,308.0,6.86,12.33,47.59359,-54.27349
2023-11-26 02:24:01+00:00,300.0,5.55,306.0,6.34,12.33,47.59359,-54.27349
2023-11-26 02:34:01+00:00,289.0,6.17,283.0,7.32,12.33,47.59359,-54.27349
2023-11-26 02:44:01+00:00,294.0,6.61,296.0,8.52,12.33,47.59359,-54.27349
2023-11-26 02:54:01+00:00,298.0,6.78,301.0,7.67,12.33,47.59359,-54.27349
2023-11-26 03:04:01+00:00,300.0,6.86,294.0,8.77,12.33,47.59359,-54.27349
2023-11-26 03:14:01+00:00,298.0,7.08,298.0,8.64,12.33,47.59359,-54.27349
2023-11-26 03:24:01+00:00,297.0,5.97,292.0,7.18,12.33,47.59359,-54.27349
2023-11-26 03:34:01+00:00,317.0,6.73,317.0,7.69,12.33,47.59359,-54.27349
2023-11-26 03:44:01+00:00,305.0,6.04,304.0,6.77,12.33,47.59359,-54.27349
2023-11-26 03:54:01+00:00,307.0,6.5,297.0,7.27,12.33,47.59359,-54.27349
2023-11-26 04:04:01+00:00,310.0,6.19,320.0,7.02,12.33,47.59359,-54.27349
2023-11-26 04:14:00+00:00,291.0,6.05,286.0,6.84,12.25,47.59359,-54.27349
2023-11-26 04:24:00+00:00,297.0,5.12,305.0,5.92,12.25,47.59359,-54.27349
2023-11-26 04:34:00+00:00,300.0,4.37,306.0,5.23,12.25,47.59359,-54.27349
2023-11-26 04:44:00+00:00,273.0,3.84,263.0,4.61,12.25,47.59359,-54.27349
2023-11-26 04:54:00+00:00,284.0,4.5,285.0,5.06,12.25,47.59359,-54.27349
2023-11-26 05:04:00+00:00,296.0,3.59,297.0,4.18,12.25,47.59359,-54.27349
2023-11-26 05:14:01+00:00,303.0,3.51,307.0,4.11,12.25,47.59359,-54.27349
2023-11-26 05:24:01+00:00,277.0,4.09,282.0,4.54,12.25,47.59359,-54.27349
2023-11-26 05:34:01+00:00,294.0,5.08,306.0,5.91,12.25,47.59359,-54.27349
2023-11-26 05:44:01+00:00,279.0,4.49,277.0,5.06,12.25,47.59359,-54.27349
2023-11-26 05:54:01+00:00,277.0,4.01,289.0,4.79,12.25,47.59359,-54.27349
2023-11-26 06:04:01+00:00,279.0,4.44,277.0,5.94,12.25,47.59359,-54.27349
2023-11-26 06:14:01+00:00,268.0,4.97,261.0,5.83,12.25,47.59359,-54.27349
2023-11-26 06:24:01+00:00,282.0,4.51,259.0,5.96,12.25,47.59359,-54.27349
2023-11-26 06:34:01+00:00,257.0,4.77,261.0,5.3,12.25,47.59359,-54.27349
2023-11-26 06:44:01+00:00,264.0,4.3,261.0,5.03,12.25,47.59359,-54.27349
2023-11-26 06:54:01+00:00,271.0,4.19,290.0,4.9,12.25,47.59359,-54.27349
2023-11-26 07:04:01+00:00,277.0,4.69,274.0,5.24,12.25,47.59359,-54.27349
2023-11-26 07:14:01+00:00,269.0,3.72,275.0,4.41,12.17,47.59359,-54.27349
2023-11-26 07:24:01+00:00,271.0,3.53,279.0,4.39,12.17,47.59359,-54.27349
2023-11-26 07:34:01+00:00,276.0,3.73,265.0,4.41,12.17,47.59359,-54.27349
2023-11-26 07:44:01+00:00,256.0,3.83,251.0,4.68,12.17,47.59359,-54.27349
2023-11-26 07:54:01+00:00,269.0,3.8,269.0,4.19,12.17,47.59359,-54.27349
2023-11-26 08:04:01+00:00,260.0,3.83,246.0,4.93,12.17,47.59359,-54.27349
2023-11-26 08:14:01+00:00,263.0,3.63,259.0,4.28,12.17,47.59359,-54.27349
2023-11-26 08:24:01+00:00,276.0,4.6,267.0,5.44,12.17,47.59359,-54.27349
2023-11-26 08:34:01+00:00,280.0,3.86,277.0,4.51,12.17,47.59359,-54.27349
2023-11-26 08:44:01+00:00,249.0,4.85,248.0,5.24,12.17,47.59359,-54.27349
2023-11-26 08:54:01+00:00,258.0,4.76,264.0,5.68,12.17,47.59359,-54.27349
2023-11-26 09:04:01+00:00,274.0,3.79,273.0,4.39,12.17,47.59359,-54.27349
2023-11-26 09:14:01+00:00,260.0,3.26,250.0,3.86,12.17,47.59359,-54.27349
2023-11-26 09:24:01+00:00,275.0,4.14,273.0,4.64,12.17,47.59359,-54.27349
2023-11-26 09:34:01+00:00,277.0,3.63,288.0,4.5,12.17,47.59359,-54.27349
2023-11-26 09:44:01+00:00,299.0,3.42,300.0,3.83,12.17,47.59359,-54.27349
2023-11-26 09:54:01+00:00,315.0,4.37,320.0,5.12,12.17,47.59359,-54.27349
2023-11-26 10:04:01+00:00,309.0,3.39,318.0,3.96,12.17,47.59359,-54.27349
2023-11-26 10:14:00+00:00,289.0,4.11,281.0,4.74,12.09,47.59359,-54.27349
2023-11-26 10:24:00+00:00,298.0,3.55,290.0,4.31,12.09,47.59359,-54.27349
2023-11-26 10:34:00+00:00,297.0,3.46,300.0,4.53,12.09,47.59359,-54.27349
2023-11-26 10:44:00+00:00,244.0,4.24,246.0,5.44,12.09,47.59359,-54.27349
2023-11-26 10:54:00+00:00,259.0,4.24,250.0,5.18,12.09,47.59359,-54.27349
2023-11-26 11:04:00+00:00,279.0,3.76,283.0,4.09,12.09,47.59359,-54.27349
2023-11-26 11:14:01+00:00,254.0,4.28,256.0,4.93,12.09,47.59359,-54.27349
2023-11-26 11:24:01+00:00,246.0,4.39,244.0,5.52,12.09,47.59359,-54.27349
2023-11-26 11:34:01+00:00,233.0,4.26,225.0,4.92,12.09,47.59359,-54.27349
2023-11-26 11:44:01+00:00,237.0,3.44,234.0,3.94,12.09,47.59359,-54.27349
2023-11-26 11:54:01+00:00,236.0,4.26,238.0,4.87,12.09,47.59359,-54.27349
2023-11-26 12:04:01+00:00,227.0,3.89,231.0,4.61,12.09,47.59359,-54.27349
2023-11-26 12:14:00+00:00,225.0,4.69,222.0,5.37,12.17,47.59359,-54.27349
2023-11-26 12:24:00+00:00,224.0,3.47,234.0,4.57,12.17,47.59359,-54.27349
2023-11-26 12:34:00+00:00,238.0,4.07,236.0,4.67,12.17,47.59359,-54.27349
2023-11-26 12:44:00+00:00,238.0,4.45,245.0,5.2,12.17,47.59359,-54.27349
2023-11-26 12:54:00+00:00,229.0,5.2,229.0,5.67,12.17,47.59359,-54.27349
2023-11-26 13:04:00+00:00,244.0,4.74,249.0,5.52,12.17,47.59359,-54.27349
2023-11-26 13:14:00+00:00,245.0,4.74,238.0,5.85,12.41,47.59359,-54.27349
2023-11-26 13:24:00+00:00,240.0,4.66,243.0,5.52,12.41,47.59359,-54.27349
2023-11-26 13:34:00+00:00,228.0,4.9,238.0,5.86,12.41,47.59359,-54.27349
2023-11-26 13:44:00+00:00,234.0,4.62,232.0,5.11,12.41,47.59359,-54.27349
2023-11-26 13:54:00+00:00,171.0,3.33,219.0,4.26,12.41,47.59359,-54.27349
2023-11-26 14:04:00+00:00,224.0,4.38,233.0,5.11,12.41,47.59359,-54.27349
2023-11-26 14:14:00+00:00,222.0,5.61,224.0,6.16,12.97,47.59359,-54.27349
2023-11-26 14:24:00+00:00,224.0,5.47,225.0,6.63,12.97,47.59359,-54.27349
2023-11-26 14:34:00+00:00,230.0,7.3,238.0,10.82,12.97,47.59359,-54.27349
2023-11-26 14:44:00+00:00,224.0,5.84,225.0,6.7,12.97,47.59359,-54.27349
2023-11-26 14:54:00+00:00,239.0,7.34,238.0,10.43,12.97,47.59359,-54.27349
2023-11-26 15:04:00+00:00,233.0,8.18,238.0,10.46,12.97,47.59359,-54.27349
2023-11-26 15:14:00+00:00,243.0,8.35,252.0,10.18,13.37,47.59359,-54.27349
2023-11-26 15:24:00+00:00,239.0,8.96,237.0,9.94,13.37,47.59359,-54.27349
2023-11-26 15:34:00+00:00,239.0,8.03,238.0,9.22,13.37,47.59359,-54.27349
2023-11-26 15:44:00+00:00,234.0,6.81,240.0,9.6,13.37,47.59359,-54.27349
2023-11-26 15:54:00+00:00,249.0,8.96,242.0,9.62,13.37,47.59359,-54.27349
2023-11-26 16:04:00+00:00,239.0,8.96,238.0,10.27,13.37,47.59359,-54.27349
2023-11-26 16:14:00+00:00,233.0,8.87,233.0,10.64,13.37,47.59359,-54.27349
2023-11-26 16:24:00+00:00,242.0,8.33,239.0,9.6,13.37,47.59359,-54.27349
2023-11-26 16:34:00+00:00,237.0,9.16,233.0,10.21,13.37,47.59359,-54.27349
2023-11-26 16:44:00+00:00,249.0,8.87,249.0,10.23,13.37,47.59359,-54.27349
2023-11-26 16:54:00+00:00,259.0,8.6,262.0,9.62,13.37,47.59359,-54.27349
2023-11-26 17:04:00+00:00,248.0,8.59,250.0,10.15,13.37,47.59359,-54.27349
2023-11-26 17:14:00+00:00,266.0,8.58,267.0,9.72,13.13,47.59359,-54.27349
2023-11-26 17:24:00+00:00,257.0,8.7,259.0,9.85,13.13,47.59359,-54.27349
2023-11-26 17:34:00+00:00,249.0,8.57,246.0,10.3,13.13,47.59359,-54.27349
2023-11-26 17:44:00+00:00,263.0,8.77,267.0,9.72,13.13,47.59359,-54.27349
2023-11-26 17:54:00+00:00,263.0,8.41,264.0,9.78,13.13,47.59359,-54.27349
2023-11-26 18:04:00+00:00,275.0,9.31,275.0,11.56,13.13,47.59359,-54.27349
2023-11-26 18:14:00+00:00,253.0,9.0,244.0,9.88,13.05,47.59359,-54.27349
2023-11-26 18:24:00+00:00,253.0,8.76,254.0,9.9,13.05,47.59359,-54.27349
2023-11-26 18:34:00+00:00,236.0,7.0,238.0,8.68,13.05,47.59359,-54.27349
2023-11-26 18:44:00+00:00,249.0,8.99,241.0,9.82,13.05,47.59359,-54.27349
2023-11-26 18:54:00+00:00,239.0,7.07,240.0,8.09,13.05,47.59359,-54.27349
2023-11-26 19:04:00+00:00,239.0,6.81,240.0,8.72,13.05,47.59359,-54.27349
2023-11-26 19:14:00+00:00,238.0,7.35,231.0,8.71,12.65,47.59359,-54.27349
2023-11-26 19:24:00+00:00,251.0,7.48,253.0,9.09,12.65,47.59359,-54.27349
2023-11-26 19:34:00+00:00,247.0,6.58,242.0,9.03,12.65,47.59359,-54.27349
2023-11-26 19:44:00+00:00,233.0,7.35,231.0,8.69,12.65,47.59359,-54.27349
2023-11-26 19:54:00+00:00,236.0,7.25,231.0,8.36,12.65,47.59359,-54.27349
2023-11-26 20:04:00+00:00,245.0,8.13,251.0,9.34,12.65,47.59359,-54.27349
2023-11-26 20:14:01+00:00,244.0,8.32,242.0,9.72,12.49,47.59359,-54.27349
2023-11-26 20:24:01+00:00,250.0,7.19,262.0,8.24,12.49,47.59359,-54.27349
2023-11-26 20:34:01+00:00,243.0,7.79,240.0,8.6,12.49,47.59359,-54.27349
2023-11-26 20:44:01+00:00,255.0,8.55,256.0,10.22,12.49,47.59359,-54.27349
2023-11-26 20:54:01+00:00,252.0,7.82,248.0,9.07,12.49,47.59359,-54.27349
2023-11-26 21:04:01+00:00,249.0,7.91,259.0,9.92,12.49,47.59359,-54.27349
2023-11-26 21:14:00+00:00,240.0,6.93,238.0,8.57,12.41,47.59359,-54.27349
2023-11-26 21:24:00+00:00,245.0,8.44,247.0,9.41,12.41,47.59359,-54.27349
2023-11-26 21:34:00+00:00,240.0,7.03,248.0,8.76,12.41,47.59359,-54.27349
2023-11-26 21:44:00+00:00,233.0,7.45,237.0,8.48,12.41,47.59359,-54.27349
2023-11-26 21:54:00+00:00,246.0,6.45,252.0,7.14,12.41,47.59359,-54.27349
2023-11-26 22:04:00+00:00,235.0,7.81,240.0,8.87,12.41,47.59359,-54.27349
2023-11-26 22:14:01+00:00,236.0,7.73,234.0,8.8,12.41,47.59359,-54.27349
2023-11-26 22:24:01+00:00,235.0,6.79,235.0,8.09,12.41,47.59359,-54.27349
2023-11-26 22:34:01+00:00,245.0,7.0,233.0,9.0,12.41,47.59359,-54.27349
2023-11-26 22:44:01+00:00,229.0,7.41,226.0,8.49,12.41,47.59359,-54.27349
2023-11-26 22:54:01+00:00,233.0,6.15,241.0,7.79,12.41,47.59359,-54.27349
2023-11-26 23:04:01+00:00,232.0,7.67,232.0,9.04,12.41,47.59359,-54.27349
2023-11-26 23:14:01+00:00,241.0,7.52,237.0,8.91,12.33,47.59359,-54.27349
2023-11-26 23:24:01+00:00,234.0,6.64,237.0,7.76,12.33,47.59359,-54.27349
2023-11-26 23:34:01+00:00,226.0,7.15,229.0,8.6,12.33,47.59359,-54.27349
2023-11-26 23:44:01+00:00,227.0,6.19,223.0,7.92,12.33,47.59359,-54.27349
2023-11-26 23:54:01+00:00,227.0,6.71,230.0,7.62,12.33,47.59359,-54.27349
